Terminal Aerodrome Forecast
Issued by NWS

Current Version | Previous Version | Text Only | Print | Product List | Glossary On
Versions: 1 2 3 4 5 6 7 8 9 10 11 12 13
000
FTUS44 KEPZ 271200 RRA
TAFDMN
TAF
KDMN 271208Z 2712/2812 07010KT P6SM SKC
     FM272100 17008KT P6SM SCT150
     FM280300 09006KT P6SM BKN250=

USA.gov is the U.S. government's official web portal to all federal, state and local government web resources and services.